User: anonymous   Login
Location: Vancouver
(49.2500°N, 123.1330°W)
Time: 16:46:59
(UTC-08:00)
Language:

Cosmos 1939 Rocket - Orbit

View from above orbital plane
View from above orbital plane
View from above satellite
View from above satellite

Ground track
Ground track

The orbit data is extracted from the following two-line orbital elements,

1 19046U 88032B   15029.56358960  .00002643  00000-0  21095-3 0  1177
2 19046 097.6190 084.8190 0042251 049.1885 311.2991 15.00455173442134
Epoch (UTC): 29 January 2015 13:31:34
Eccentricity: 0.0042251
inclination: 97.6190°
perigee height: 536 km
apogee height: 595 km
right ascension of ascending node: 84.8190°
argument of perigee: 49.1885°
revolutions per day: 15.00455173
mean anomaly at epoch: 311.2991°
orbit number at epoch: 44213

The dashed part of the orbit path shows where the satellite is in the earth's shadow,  

DLR